sat.trackr.live / text

‹ back to catalog

STARLINK-31950

NORAD 59863 · 2024-098F

PAYLOAD ACTIVE UNKNOWN

§ Identity

Operator
Country
US
Launch date
2024-05-24
Launch site
AFETR
Launch vehicle
Mass (kg)
RCS (m²)

Purposes: comms

External: N2YO · Heavens-Above · Gunter

§ Orbital elements

Epoch: 2026-05-25T04:22:24.074112Z

Period
94.27 min
Inclination
43.0006°
Eccentricity
0.0001284
Mean motion
15.27582094 rev/d
Perigee alt
482.2 km
Apogee alt
483.9 km
Semi-major
6,861.2 km
B*
4.4075e-5
RAAN
206.0974°
Arg perigee
280.5262°
Mean anomaly
79.5444°
Rev number
11,354

§ Raw data

STARLINK-319501 59863U 24098F   26145.18222308  .00000951  00000+0  44075-4 0  99962 59863  43.0006 206.0974 0001284 280.5262  79.5444 15.27582094113544

JSON: /api/v1/satellites/59863 · /tle

For live sub-satellite position, see the globe view (requires WebGL).

§ Visibility from observer

Set your observer location to see the next 7 days of passes ≥ 10°. The values pass through the URL so the page stays shareable.

No JS? Fill the form by hand. The geolocation button needs JavaScript.